Location: De Har
(53.3413°N, 6.6858°E)
Time: 17:23:20
(UTC+00:00)

Cosmos 1777 Rocket - Pass Details

Date: 22 April 2026
Orbit: 753 x 771 km, 74.0° (Epoch: 9 May)

Event Time Altitude Azimuth Distance (km) Brightness Sun altitude
Rises 01:09:41 0° 333° (NNW) 3,258 7.8 -21.3°
Reaches altitude 10° 01:12:04 10° 334° (NNW) 2,326 7.0 -21.1°
Maximum altitude 01:17:22 85° 63° (ENE) 780 4.0 -20.7°
Enters shadow 01:20:42 23° 152° (SSE) 1,579 5.3 -20.5°
